Regional Weather Roundup
Issued by NWS State College, PA

Home | Current Version | Previous Version | Text Only | Print | Product List | Glossary On
Versions: 1 2 3 4 5 6 7 8 9 10 11 12 13 14 15 16 17 18 19 20 21 22 23 24 25 26 27 28 29 30 31 32 33 34 35 36 37 38 39 40 41 42 43 44 45 46 47 48 49 50
000
ASUS41 KCTP 290303
RWRCTP

REGIONAL WEATHER ROUNDUP
NATIONAL WEATHER SERVICE STATE COLLEGE PA
1100 PM EDT MON JUL 28 2014

Note: "fair" indicates few or no clouds below 12,000 feet with no
significant weather and/or obstructions to visibility.

* = STATION THAT DOES NOT REPORT PRECIPITATION /E.G. RAIN...SNOW...ETC/
    THUNDER OR FOG.

PAZ002>004-007>009-013>016-020>023-029>032-290400-
WESTERN PENNSYLVANIA

CITY           SKY/WX    TMP DP  RH WIND       PRES   REMARKS
ERIE           CLOUDY    61  47  59 N10       29.93R
MEADVILLE      PTCLDY    53  47  79 W6        29.94S
FRANKLIN*      CLEAR     52  46  82 W7        29.95S
NEW CASTLE       N/A     56  50  80 N5        29.97S
BEAVER COUNTY  NOT AVBL
BUTLER*        CLEAR     55  50  82 CALM      29.97R
PITTSBURGH INT PTCLDY    58  52  80 NW9       29.96R
PITTSBURGH     CLEAR     58  52  80 NW7       29.95R
INDIANA*       CLOUDY    57  55  94 VRB6      29.97S
LATROBE        CLOUDY    61  61 100 CALM      29.95S
WASHINGTON CO* PTCLDY    54  50  87 W3        29.97R
$$

PAZ004>006-010>012-017>019-024>028-033>037-041-042-045-046-049>053-290400-
CENTRAL PENNSYLVANIA

CITY           SKY/WX    TMP DP  RH WIND       PRES   REMARKS
BRADFORD       CLOUDY    56  53  90 NW8       29.90R
DUBOIS         CLOUDY    56  53  90 W9        29.91R
CLEARFIELD     CLOUDY    59  55  87 VRB7      29.90R
JOHNSTOWN      CLOUDY    54  52  93 NW12      29.94R
ALTOONA        LGT RAIN  60  57  89 W8        29.90R
STATE COLLEGE  CLOUDY    61  55  80 NW5       29.87S
WILLIAMSPORT   CLOUDY    65  53  65 W8        29.82R
SELINSGROVE    CLOUDY    65  57  75 NW6       29.83R
FT INDIANTOWN  MOCLDY    66  60  79 VRB5      29.82R
CAPITAL CITY   MOCLDY    65  59  81 W7        29.82R
HARRISBURG     MOCLDY    67  60  78 NW9       29.81R
YORK           CLOUDY    65  60  84 CALM      29.83R
$$

PAZ038>040-043-044-047-048-054-055-060>062-067>071-290400-
EASTERN PENNSYLVANIA

CITY           SKY/WX    TMP DP  RH WIND       PRES   REMARKS
SCRANTON       CLOUDY    62  55  77 NW12      29.81R
MOUNT POCONO   CLOUDY    58  54  86 NW14      29.80R
ALLENTOWN      CLOUDY    67  55  65 NW13G23   29.77R
QUAKERTOWN*    PTCLDY    64  59  82 CALM      29.78R
READING        PTCLDY    67  57  70 NW10      29.79R
LANCASTER      CLOUDY    64  62  93 NW6       29.80R
COATESVILLE    MOCLDY    64  64 100 NW9       29.80R
POTTSTOWN      MOCLDY    66  59  78 NW7       29.79R
BLUE BELL      PTCLDY    68  63  83 CALM      29.76R
DOYLESTOWN     PTCLDY    65  58  78 NW8       29.76R
WILLOW GROVE   NOT AVBL
NORTH PHILA    MOCLDY    70  58  65 NW9       29.77R
PHILADELPHIA   MOCLDY    72  59  63 NW10      29.76R
$$


USA.gov is the U.S. government's official web portal to all federal, state and local government web resources and services.